Regional Weather Roundup
Issued by NWS

Home | Current Version | Previous Version | Graphics & Text | Print | Product List | Glossary On
Versions: 1 2 3 4 5 6 7 8 9 10 11 12 13 14 15 16 17 18 19 20 21 22 23 24 25 26 27 28 29 30 31 32 33 34 35 36 37 38 39 40 41 42 43 44 45 46 47 48 49 50
901
ASUS45 KABQ 280410
RWRNM
NEW MEXICO REGIONAL WEATHER ROUNDUP
NATIONAL WEATHER SERVICE ALBUQUERQUE NM
1000 PM MDT WED JUL 27 2016

NOTE: "FAIR" MEANS FEW OR NO CLOUDS BELOW 12,000 FEET AGL WITH NO
       SIGNIFICANT WEATHER OR OBSTRUCTIONS TO VISION.

      THIS PRODUCT IS RELEASED AS TWO VERSIONS.  ONE VERSION NEAR
      THE TOP OF THE HOUR CONTAINING PRELIMINARY DATA FROM ALBUQUERQUE
      AND OTHER STATIONS.  A FINAL VERSION WITH ADDITIONAL DATA IS
      ISSUED ABOUT 10 MINUTES AFTER THE HOUR.

NMZ501-503-504-510>518-280500-
NORTHWEST PLATEAU/NORTHCENTRAL MOUNTAINS

CITY           SKY/WX    TMP DP  RH WIND       PRES   REMARKS
FARMINGTON     FAIR      82  34  17 N9        30.09R
LOS ALAMOS     FAIR      74  40  29 SW9       30.32R
SANTA FE       FAIR      73  47  39 E9        30.25R
TAOS           FAIR      73  36  25 SE10G20   30.31R
ANGEL FIRE     FAIR      55  44  67 CALM      30.46R

$$
NMZ402-403-502-505>509-280500-
WESTCENTRAL MOUNTAINS/SOUTHWEST MOUNTAINS

CITY           SKY/WX    TMP DP  RH WIND       PRES   REMARKS
GALLUP         FAIR      73  31  21 CALM      30.22R
GRANTS         FAIR      75  43  31 S9        30.27R
SILVER CITY    FAIR      71  63  75 N9        30.19R

$$
NMZ407-409-411-412-280500-
SOUTHERN DESERTS

CITY           SKY/WX    TMP DP  RH WIND       PRES   REMARKS
LORDSBURG      FAIR      73  61  64 SW3       30.08S
DEMING         FAIR      76  67  73 SW3       30.10R
LAS CRUCES     FAIR      82  54  38 S5        30.11R
HOLLOMAN AFB   FAIR      84  57  39 S3        30.07R
ALAMOGORDO     FAIR      79  57  47 E5        30.09R
T OR C         CLOUDY    85  52  32 MISG      30.16R

$$
NMZ519>523-280500-
CENTRAL VALLEYS/CENTRAL HIGHLANDS

CITY           SKY/WX    TMP DP  RH WIND       PRES   REMARKS
ALBUQUERQUE    FAIR      82  41  23 E8        30.16R
DOUBLE EAGLE   PTCLDY    72  45  37 S6        30.20R
MORIARTY ARPT  FAIR      68  55  63 S5        30.28R
CLINES CORNERS FAIR      65  53  65 E8        30.34R
BELEN          FAIR      80  47  31 S14       30.15R
SOCORRO        FAIR      75  58  55 NW10      30.13F

$$
NMZ524>526-539-540-280500-
SOUTHCENTRAL MOUNTAINS

CITY           SKY/WX    TMP DP  RH WIND       PRES   REMARKS
RUIDOSO          N/A     68  50  52 SE8       30.35R

$$
NMZ527>531-280500-
NORTHEAST HIGHLANDS/NORTHEAST PLAINS

CITY           SKY/WX    TMP DP  RH WIND       PRES   REMARKS
LAS VEGAS      FAIR      65  48  54 S9        30.33R
RATON          FAIR      70  56  61 W7        30.30R
CLAYTON        FAIR      65  62  90 SW6       30.22R

$$
NMZ532>537-280500-
EASTCENTRAL PLAINS

CITY           SKY/WX    TMP DP  RH WIND       PRES   REMARKS
TUCUMCARI      FAIR      76  60  57 E21G29    30.14R
CANNON AFB     CLOUDY    72  63  74 E9        30.17R
CLOVIS AIRPORT FAIR      70  59  68 NE9       30.18R

$$
NMZ028-029-538-280500-
SOUTHEAST PLAINS

CITY           SKY/WX    TMP DP  RH WIND       PRES   REMARKS
ROSWELL        FAIR      79  62  56 E3        30.06R
ARTESIA        FAIR      84  57  39 VRB6      30.06R
CARLSBAD       FAIR      84  58  40 E8        30.02R
HOBBS          FAIR      81  57  44 NE8       30.09R


$$




USA.gov is the U.S. government's official web portal to all federal, state and local government web resources and services.